Weather History for McConnell AFB, KS

Change the Weather History Date:

Sunday, February 23, 2014

  Actual Average Record
Temperature  
Mean Temperature 34 °F -  
Max Temperature 42 °F 47 °F 71 °F (2007)
Min Temperature 25 °F 28 °F 7 °F (2013)
Degree Days  
Heating Degree Days 31    
Moisture  
Dew Point 18 °F    
Average Humidity 54    
Maximum Humidity 89    
Minimum Humidity 39    
Precipitation  
Precipitation 0.00 in - - ()
Sea Level Pressure  
Sea Level Pressure 30.23 in    
Wind  
Wind Speed 18 mph (NNE)    
Max Wind Speed 23 mph    
Max Gust Speed 33 mph    
Visibility 10 miles    
Events      
Averages and records for this station are not official NWS values.
T = Trace of Precipitation, MM = Missing Value Source: NWS Daily Summary

Daily Weather History Graph

Daily Weather History Graph

Search for Another Location

Airport:

Trip Planner

Search our weather history database for the weather conditions in past years. The results will help you decide how hot, cold, wet, or windy it might be!

Date:

Astronomy

Feb. 23, 2014 Rise Set
Actual Time 7:08 AM CST 6:16 PM CST
Civil Twilight 6:42 AM CST 6:43 PM CST
Nautical Twilight 6:11 AM CST 7:13 PM CST
Astronomical Twilight 5:41 AM CST 7:44 PM CST
Moon 2:04 AM CST (2/23) 12:23 PM CST (2/23)
Length of Visible Light 12h 01m
Length of Day
11h 08m
Last Quarter, 38% of the Moon is Illuminated
Feb 23
Last Quarter
Mar 1
New
Mar 8
First Quarter
Mar 16
Full
Mar 23
Last Quarter

Hourly Weather History & Observations

Time (CST) Temp. Windchill Dew Point Humidity Pressure Visibility Wind Dir Wind Speed Gust Speed Precip Events Conditions
12:58 AM 34.0 °F 22.1 °F 30.6 °F 87% 30.02 in 10.0 mi NNE 21.9 mph 29.9 mph N/A   Scattered Clouds
1:58 AM 32.4 °F 20.3 °F 29.5 °F 89% 30.06 in 10.0 mi NNE 20.7 mph 29.9 mph N/A   Mostly Cloudy
2:58 AM 31.1 °F 18.0 °F 26.2 °F 82% 30.05 in 10.0 mi NNE 23.0 mph 33.4 mph N/A   Scattered Clouds
3:58 AM 31.1 °F 18.9 °F 23.4 °F 73% 30.08 in 10.0 mi NNE 19.6 mph 29.9 mph N/A   Clear
4:58 AM 29.5 °F 17.2 °F 21.0 °F 71% 30.10 in 10.0 mi NNE 18.4 mph - N/A   Clear
5:58 AM 27.7 °F 13.5 °F 16.7 °F 63% 30.14 in 10.0 mi North 23.0 mph - N/A   Clear
6:58 AM 26.6 °F 13.4 °F 8.6 °F 47% 30.15 in 10.0 mi NNE 18.4 mph 25.3 mph N/A   Clear
7:58 AM 26.8 °F 12.6 °F 11.7 °F 53% 30.20 in 10.0 mi North 21.9 mph 27.6 mph N/A   Clear
8:58 AM 30.0 °F 17.9 °F 15.4 °F 55% 30.22 in 10.0 mi NNE 18.4 mph 24.2 mph N/A   Clear
9:58 AM 33.8 °F 22.8 °F 16.2 °F 49% 30.26 in 10.0 mi North 18.4 mph - N/A   Clear
10:58 AM 36.9 °F 26.8 °F 18.9 °F 48% 30.27 in 10.0 mi North 18.4 mph 28.8 mph N/A   Clear
11:58 AM 39.7 °F 30.3 °F 19.2 °F 44% 30.29 in 10.0 mi North 19.6 mph 24.2 mph N/A   Clear
12:58 PM 41.2 °F 31.9 °F 19.0 °F 41% 30.27 in 10.0 mi North 20.7 mph 25.3 mph N/A   Clear
1:28 PM 42.8 °F 35.8 °F 21.2 °F 42% 30.23 in 10.0 mi NNE 13.8 mph 23.0 mph N/A   Clear
1:58 PM 42.1 °F 35.7 °F 21.0 °F 43% 30.28 in 10.0 mi NNE 11.5 mph - N/A   Clear
2:58 PM 42.8 °F 34.8 °F 20.3 °F 41% 30.26 in 10.0 mi NNE 17.3 mph 21.9 mph N/A   Clear
3:02 PM 42.8 °F 35.8 °F 19.4 °F 39% 30.22 in 10.0 mi North 13.8 mph 21.9 mph N/A   Clear
3:16 PM 42.8 °F 34.8 °F 19.4 °F 39% 30.21 in 10.0 mi NE 17.3 mph - N/A   Clear
3:58 PM 42.3 °F 34.8 °F 18.5 °F 39% 30.26 in 10.0 mi North 15.0 mph 24.2 mph N/A   Clear
4:58 PM 40.8 °F 32.6 °F 17.8 °F 40% 30.25 in 10.0 mi NNE 16.1 mph - N/A   Clear
5:58 PM 37.9 °F 29.2 °F 15.3 °F 40% 30.27 in 10.0 mi NNE 15.0 mph - N/A   Clear
6:58 PM 35.2 °F 27.1 °F 15.4 °F 44% 30.31 in 10.0 mi NNE 11.5 mph - N/A   Clear
7:58 PM 32.4 °F 23.0 °F 15.6 °F 50% 30.32 in 10.0 mi NNE 12.7 mph - N/A   Clear
8:58 PM 30.6 °F 21.8 °F 14.5 °F 51% 30.34 in 10.0 mi NNE 10.4 mph - N/A   Clear
9:58 PM 28.4 °F 19.1 °F 14.2 °F 55% 30.35 in 10.0 mi NNE 10.4 mph - N/A   Clear
10:58 PM 26.4 °F 17.3 °F 14.7 °F 61% 30.34 in 10.0 mi NE 9.2 mph - N/A   Clear
11:58 PM 25.2 °F 16.5 °F 15.3 °F 66% 30.33 in 10.0 mi NNE 8.1 mph - N/A   Clear